Wind_Speed
16 14 14 12 13 16 17 18 16 15 14 14 15 16 17 19 21 23 24 26 26 27 28 30 31 31 32 33 33 34 35 36 36 37 38 38 38 38 38 36 34 33 33 32 32 29 25 21 18 16 13 12 11 10 8 7 7 8 10 12 13 14 14 13 13 14 14 14 15 16 17 18 19 20 22 23 24 24 24 23 22 22 22 22 22
14 15 15 12 12 15 15 14 13 13 13 14 15 16 17 18 19 21 23 24 25 25 27 28 30 31 32 33 33 33 34 35 36 37 38 38 38 38 39 37 35 34 33 32 32 30 26 23 20 18 16 13 11 11 10 10 12 12 12 13 13 13 14 14 14 14 14 15 15 16 18 18 19 21 22 23 24 25 24 24 23 23 23 23 23
15 15 16 13 13 15 14 11 9 11 12 12 13 15 16 17 18 19 21 23 24 25 25 27 28 29 31 32 32 33 34 34 35 36 37 38 38 38 39 39 36 34 34 33 32 31 28 24 21 18 17 16 13 12 13 14 15 14 13 14 14 13 13 14 14 15 15 16 16 17 18 19 20 22 23 24 25 25 25 25 24 24 24 24 23
17 16 18 16 14 15 13 9 8 9 10 10 11 13 15 17 18 20 21 23 23 24 24 25 27 29 30 31 32 32 33 34 34 35 37 38 39 39 39 39 38 36 35 34 32 32 30 26 22 19 17 16 15 13 14 17 17 15 14 13 13 13 13 14 14 16 17 17 17 18 19 20 21 23 24 25 26 26 26 26 26 26 25 25 25
19 18 20 20 17 16 13 9 8 8 8 9 10 12 15 18 20 21 23 23 23 23 24 25 27 29 29 30 31 31 32 33 34 34 36 37 38 38 39 39 39 37 36 34 33 32 31 28 25 21 19 16 15 14 13 15 18 18 16 14 14 15 15 15 16 17 18 18 18 18 19 21 22 24 25 26 27 28 28 28 28 28 27 27 26
21 20 21 21 18 16 14 11 10 9 9 10 11 13 16 19 21 22 23 23 23 23 23 24 27 29 29 30 30 30 32 33 34 34 35 36 37 38 38 39 39 37 36 35 33 31 31 29 26 23 20 18 16 15 14 13 16 19 19 17 17 18 18 18 18 19 20 20 19 18 19 20 22 24 26 27 28 29 30 30 30 30 29 29 28
24 23 22 21 18 16 16 14 11 10 11 12 14 15 17 20 21 22 23 23 23 22 22 24 27 29 29 30 30 30 31 33 33 34 34 35 36 37 37 38 38 38 37 36 35 32 30 29 28 25 21 20 18 17 15 14 13 16 19 20 21 21 22 22 22 22 23 22 20 20 20 20 22 23 25 26 28 30 31 31 32 32 32 32 31
25 23 21 20 18 17 17 16 12 11 13 14 15 17 19 21 22 23 23 23 23 21 22 24 26 28 29 30 30 30 30 32 33 33 33 34 35 36 37 38 38 38 37 36 36 33 31 30 29 27 24 21 19 18 17 15 14 14 17 21 24 25 25 25 23 23 23 23 23 22 22 21 22 23 24 25 26 28 30 31 33 33 34 34 34
26 22 19 19 18 18 18 17 15 14 14 15 17 19 21 22 22 23 23 24 24 22 22 24 26 28 29 30 31 30 30 32 32 32 33 34 35 36 36 37 38 38 37 36 36 34 32 30 29 28 27 24 21 19 19 18 16 15 16 21 25 27 28 26 24 23 23 25 26 24 24 23 24 24 24 26 27 28 29 30 31 33 34 35 35
25 21 20 18 18 19 19 19 19 18 17 17 19 22 23 23 22 23 24 25 24 23 22 24 26 27 29 30 31 30 30 31 32 32 32 34 35 36 36 37 38 38 38 37 36 35 33 31 30 29 28 27 25 22 20 19 18 17 16 19 24 28 29 27 26 26 26 27 27 27 27 27 27 27 27 27 28 28 29 30 30 31 33 34 35
22 21 21 20 19 20 21 22 21 20 19 21 23 25 25 24 23 23 25 25 25 23 23 24 26 27 29 30 30 30 31 31 32 32 32 33 35 36 36 36 37 38 38 38 37 37 35 32 30 30 29 27 26 25 22 21 20 19 19 18 21 25 29 30 31 31 31 29 29 30 30 29 30 30 30 30 29 28 29 30 31 31 32 32 33
22 22 22 22 21 22 22 23 23 22 22 24 26 27 27 27 26 26 26 26 25 23 24 25 27 28 29 30 30 31 31 32 32 32 32 33 35 37 37 37 37 38 38 38 38 38 36 33 31 30 29 28 27 26 25 24 23 22 22 21 21 22 26 30 33 35 35 34 33 35 33 31 31 32 31 32 32 32 31 30 31 32 32 32 31
23 24 24 24 23 23 23 24 24 25 26 27 27 28 29 29 28 28 29 27 25 24 25 26 27 29 30 30 30 31 32 32 32 32 32 33 35 36 37 37 37 37 38 38 39 39 38 35 32 31 30 29 28 27 26 25 25 25 25 24 25 24 24 25 30 35 38 37 37 38 36 34 34 34 33 34 34 35 33 31 31 31 31 31 31
25 26 26 27 27 26 26 27 27 28 28 28 29 30 31 30 29 30 30 28 26 25 26 27 29 30 30 29 30 31 32 33 33 33 32 33 35 36 37 37 37 36 37 38 39 40 40 37 33 31 31 30 30 29 28 28 27 27 27 27 27 27 27 26 26 30 36 39 40 40 40 38 37 37 36 35 36 36 35 33 31 31 31 31 31
27 28 28 29 30 29 28 30 31 30 29 29 31 32 31 31 31 31 30 29 27 27 28 29 30 31 30 29 30 32 33 33 33 34 34 34 35 36 37 37 37 36 37 38 39 40 41 39 35 33 32 32 32 32 32 31 31 31 30 29 28 28 29 29 28 28 31 36 40 43 45 43 40 40 39 37 37 38 37 36 35 34 34 33 33
27 28 28 29 30 31 31 32 32 31 31 32 32 32 32 32 33 31 30 28 28 28 29 30 32 32 30 30 31 32 32 33 33 34 35 36 36 37 37 37 37 37 37 38 39 41 42 40 36 34 34 34 34 35 35 35 35 35 34 31 30 29 30 31 31 31 31 32 36 40 46 47 45 43 40 38 38 39 38 38 38 38 38 37 36
28 27 27 28 29 31 32 33 33 32 33 33 33 33 33 34 33 31 29 29 29 29 30 32 33 33 31 31 32 32 33 33 33 33 34 36 37 38 38 39 39 39 38 39 40 42 43 41 37 34 34 35 36 37 37 38 38 38 37 34 31 30 31 32 33 34 34 33 34 36 41 48 50 47 43 40 39 39 38 38 40 41 41 41 40
27 25 25 26 27 30 33 34 34 33 33 34 34 34 34 33 31 29 29 29 30 31 32 34 34 34 33 33 33 33 34 35 35 34 33 34 36 38 39 40 40 40 40 40 41 44 45 44 39 36 35 36 37 38 39 39 40 41 40 37 34 32 31 32 33 35 36 37 36 36 37 43 49 51 49 46 44 41 40 40 42 42 43 43 44
26 24 23 23 26 30 33 34 34 33 33 33 33 33 32 31 29 29 29 30 31 32 34 35 35 34 34 35 35 35 36 37 37 36 35 34 34 36 38 39 40 41 41 42 43 45 47 45 42 39 38 38 39 39 40 41 41 42 42 40 37 35 34 33 34 36 38 39 39 39 38 39 44 50 52 51 50 47 44 43 44 44 44 44 45
27 24 23 23 27 31 33 33 32 32 32 32 31 31 30 29 28 28 29 30 32 34 35 35 35 35 36 36 36 36 38 38 38 38 38 37 35 34 34 36 39 40 41 43 45 47 48 46 43 41 40 40 41 41 42 43 43 44 43 42 40 38 36 35 35 36 38 40 42 42 41 40 41 45 51 53 53 53 50 46 45 45 46 45 45
30 27 25 25 28 30 31 30 30 30 30 29 29 29 28 28 28 28 29 31 33 35 36 36 36 37 37 37 37 38 39 39 39 39 40 40 39 37 34 34 36 40 42 44 46 48 48 45 43 42 41 41 42 43 43 44 45 45 44 43 42 40 38 37 37 37 38 40 43 44 44 43 42 43 47 52 56 57 55 50 47 46 47 47 46
31 29 26 28 31 31 30 30 30 30 29 29 28 29 29 29 29 29 30 32 34 35 36 36 38 38 38 38 38 39 40 40 40 40 41 42 42 40 38 35 35 38 41 44 48 49 48 45 43 42 43 43 44 44 45 46 46 46 45 44 43 42 41 40 40 40 40 41 43 45 45 45 44 43 45 50 56 60 59 55 51 49 49 48 47
34 32 31 32 34 33 31 30 30 30 30 30 31 32 32 31 30 31 32 34 35 36 36 37 39 39 39 39 40 40 41 40 41 41 42 43 43 42 41 40 38 39 41 43 45 47 46 44 43 43 44 45 45 46 46 47 47 45 44 44 44 44 45 44 44 43 43 43 44 45 46 46 45 45 45 47 53 59 58 55 53 51 51 49 49
42 41 41 41 41 40 37 34 34 34 35 36 36 36 36 34 33 33 34 35 36 36 37 39 39 40 40 40 41 42 42 41 41 42 42 43 43 43 42 42 42 43 44 44 44 45 44 44 44 44 45 46 47 47 48 48 47 45 44 44 45 47 47 47 46 45 44 44 45 45 45 46 47 47 47 47 50 56 58 54 52 50 49 49 50
46 46 48 50 50 48 43 40 40 41 42 42 41 39 37 36 35 35 35 36 37 37 38 39 40 41 41 42 43 43 43 42 42 43 43 44 44 44 43 43 44 46 47 46 45 44 44 44 45 46 47 48 48 49 49 48 46 45 44 45 47 48 48 47 46 45 45 45 45 45 45 46 46 47 48 48 48 53 59 57 52 50 48 48 50
40 41 44 46 45 43 42 41 42 43 44 43 41 39 38 36 36 36 37 38 38 39 40 41 42 43 43 43 44 44 43 43 43 43 44 44 45 44 44 43 45 47 48 47 45 45 44 45 46 47 48 49 50 50 50 48 46 45 46 47 48 48 46 45 44 44 44 45 45 45 45 45 45 46 47 48 48 50 57 60 55 51 52 53 53
37 38 38 38 37 39 41 42 43 43 43 42 41 40 39 38 37 38 38 39 39 40 41 42 44 44 44 44 45 44 44 44 44 44 45 45 45 45 45 45 44 45 47 47 46 46 46 46 47 48 49 50 51 51 50 49 47 48 48 48 47 46 45 43 43 43 43 44 45 45 45 44 44 45 45 46 47 49 55 62 59 51 51 56 56
34 35 36 37 40 43 45 45 45 45 45 44 44 43 41 40 39 40 40 40 41 42 43 44 45 45 45 45 45 44 44 44 44 45 45 45 45 45 46 47 46 45 45 47 47 47 48 48 48 49 49 50 50 50 50 49 49 50 50 48 46 45 44 43 43 43 44 44 45 45 45 45 44 44 44 44 45 47 52 60 60 51 49 56 58
34 39 43 44 45 47 48 49 51 51 48 45 44 44 42 42 42 43 42 42 43 44 45 46 46 45 46 46 45 44 44 45 45 45 45 45 45 45 46 46 47 47 47 47 48 48 49 49 49 49 50 49 49 49 49 49 51 51 50 48 46 45 44 43 43 44 45 45 46 46 47 46 45 44 43 43 43 46 49 57 63 56 51 55 58
36 42 48 49 48 50 51 51 51 50 47 44 43 43 44 45 45 45 44 44 45 45 46 46 45 46 46 45 44 44 45 45 45 45 44 44 44 44 45 46 47 48 48 49 49 50 50 51 51 51 51 50 50 49 50 51 52 51 49 48 46 45 44 44 44 46 47 47 48 48 48 47 46 44 42 42 42 44 48 55 64 65 58 55 56
39 40 45 48 48 48 48 46 44 45 46 45 45 45 46 47 46 46 45 45 45 46 46 46 45 46 46 44 44 44 45 45 45 44 44 43 43 43 44 46 47 48 48 49 50 51 52 52 53 52 52 52 51 51 52 52 51 50 50 49 47 46 46 46 47 48 49 50 50 50 50 49 47 45 42 40 41 44 47 53 62 69 67 58 55
41 42 45 45 43 42 41 40 41 43 44 43 44 45 46 46 46 45 45 45 46 46 46 45 46 46 45 44 44 45 45 45 44 43 43 42 42 43 45 46 46 47 48 49 50 52 52 53 54 54 54 53 53 54 54 53 51 50 50 49 49 48 49 51 52 52 53 53 52 51 50 49 47 45 42 40 41 43 46 51 58 67 70 65 59
40 42 45 43 40 38 37 40 42 43 41 40 41 42 43 44 44 44 45 45 46 46 45 46 46 45 44 45 45 45 45 44 43 42 42 42 43 44 45 46 46 47 48 49 51 52 53 54 55 55 54 54 55 55 54 53 52 51 49 49 50 51 53 54 55 55 56 55 54 53 50 48 47 45 43 40 41 43 46 50 56 63 68 68 64
39 41 43 41 40 39 40 43 44 42 40 38 39 40 42 43 44 44 45 45 45 45 46 46 45 45 45 46 46 45 44 43 42 41 42 43 44 45 45 45 46 47 49 50 51 52 53 54 55 55 55 55 55 55 53 52 52 51 49 49 50 53 55 56 57 56 56 55 54 53 51 48 46 45 43 41 40 43 46 49 55 61 66 67 66
38 41 43 42 44 45 46 48 46 41 39 38 39 41 42 42 43 43 44 44 45 46 46 46 46 46 47 46 45 44 43 41 41 41 42 43 44 44 44 45 46 48 50 51 52 53 54 55 55 55 55 55 54 54 52 52 51 51 51 52 53 55 56 57 58 58 56 54 52 51 50 48 46 45 44 42 41 42 46 49 53 59 64 66 66
39 44 47 46 48 50 50 50 45 40 37 37 39 40 41 41 41 43 44 44 45 46 45 46 47 47 47 46 45 43 41 40 41 42 43 44 44 43 44 46 48 49 51 52 53 54 56 56 56 56 55 55 54 53 53 52 51 52 54 57 57 58 59 59 59 58 57 54 51 49 49 48 46 45 44 43 42 43 46 49 53 58 62 64 64
40 48 53 51 52 53 50 47 42 39 38 38 40 41 40 40 41 42 43 44 44 45 45 46 47 47 46 45 43 41 40 40 42 43 44 43 43 44 45 47 49 50 51 53 55 56 57 57 57 56 55 54 54 54 53 52 53 55 57 59 60 61 61 60 59 58 56 54 51 48 46 47 47 46 45 45 44 44 46 49 53 57 61 63 62
43 52 56 54 53 50 45 43 41 40 40 40 41 41 39 39 40 40 41 42 43 44 45 47 47 47 45 43 40 39 40 41 42 43 43 43 43 45 48 49 50 51 53 54 56 57 58 58 57 56 55 54 54 53 53 54 56 58 59 60 61 61 61 60 57 54 53 52 52 50 47 45 46 46 46 46 45 45 46 49 53 57 61 63 61
48 54 55 52 50 46 44 44 43 42 42 43 42 40 38 39 39 40 42 43 44 45 47 48 47 45 42 39 39 39 41 42 42 42 42 43 45 48 49 49 50 52 54 55 57 58 58 58 57 56 55 55 55 54 54 56 58 60 61 62 62 62 62 60 58 55 51 49 49 50 49 46 45 46 47 47 47 47 47 49 54 57 61 64 62
50 53 51 49 47 45 46 47 45 44 44 44 43 41 40 39 40 41 43 43 45 47 49 49 46 42 39 38 39 40 41 41 41 42 43 45 48 49 49 49 51 53 55 56 57 58 58 58 57 56 56 56 55 55 56 58 60 61 62 63 63 63 63 62 61 59 55 52 49 48 48 47 46 46 47 48 48 48 48 50 53 58 61 65 65
46 46 45 45 44 45 47 48 46 44 44 45 45 45 43 41 40 41 42 44 47 49 50 46 42 39 38 38 39 39 40 40 40 42 45 48 49 49 49 50 52 54 56 56 57 58 58 57 57 57 57 57 57 57 59 60 62 64 65 65 65 65 64 63 61 59 57 54 52 49 48 47 46 46 47 49 49 49 50 50 53 58 61 65 68
41 40 41 43 43 45 47 47 45 44 45 46 47 46 43 41 40 42 45 47 50 50 47 42 39 38 38 38 38 38 39 39 41 44 47 49 49 49 50 51 53 55 56 56 57 59 58 58 57 57 58 58 59 60 61 63 65 66 67 67 67 67 66 64 62 59 56 54 51 49 48 47 46 45 47 49 50 50 51 52 53 57 61 65 68
39 39 41 43 44 46 46 44 43 43 42 41 41 41 42 42 44 47 50 52 52 48 42 39 38 39 39 38 39 39 39 40 44 47 48 49 49 50 50 52 55 56 56 56 58 59 59 59 59 59 59 59 60 62 64 66 67 68 69 70 70 69 69 67 65 61 58 55 50 46 45 46 45 45 45 47 50 52 52 53 54 56 60 64 68
44 41 39 39 40 41 42 41 40 40 40 41 43 44 45 47 49 52 53 52 48 42 39 39 39 39 39 39 39 39 40 44 47 48 49 49 49 49 51 54 56 56 56 58 60 60 60 60 60 60 60 61 62 64 66 68 69 70 71 72 72 72 71 69 67 64 60 56 50 44 42 42 43 44 44 45 49 52 53 53 55 57 60 63 67
51 47 43 40 40 41 41 41 43 45 47 50 51 51 51 52 53 53 52 47 43 40 39 40 39 39 40 40 40 41 44 47 48 49 49 49 49 50 53 56 56 57 58 59 61 62 62 62 62 62 62 63 64 66 68 69 71 72 73 73 74 73 73 71 69 67 63 57 50 43 39 39 41 42 43 43 46 50 54 55 55 57 59 62 66
59 58 56 53 52 51 51 51 53 55 55 56 55 55 55 54 52 51 48 44 42 40 40 39 40 41 41 41 41 44 47 49 49 49 49 49 50 53 56 57 57 58 59 61 62 63 63 63 63 63 63 64 66 67 69 70 72 73 73 74 74 74 74 73 71 69 65 59 51 44 39 36 37 39 40 41 43 47 52 55 56 57 59 61 64
63 64 63 62 61 60 60 60 61 61 60 59 57 56 55 53 51 49 46 44 42 40 40 40 41 41 41 42 44 47 49 50 49 50 51 52 52 54 57 58 58 59 61 62 63 64 64 64 64 64 64 65 66 68 70 71 73 73 74 74 75 75 75 74 72 69 65 59 51 46 41 36 34 36 38 38 40 43 49 53 56 57 58 61 63
65 65 65 64 64 64 64 64 63 63 62 60 58 57 54 52 50 48 45 43 41 41 41 42 42 42 43 45 47 49 50 50 50 52 54 54 54 56 58 59 60 61 62 63 64 65 65 65 64 64 65 66 67 68 70 72 73 74 74 74 74 74 75 74 73 70 66 59 52 47 43 38 34 33 35 37 37 40 44 50 55 57 58 60 62
64 65 65 65 65 65 64 65 64 63 62 60 57 54 52 50 49 46 44 42 42 42 42 42 43 44 46 47 48 50 50 51 53 55 55 55 56 58 60 61 62 62 63 65 66 66 65 65 65 65 66 66 67 69 71 72 73 73 73 73 73 74 75 75 73 71 66 59 53 48 45 40 36 32 32 35 36 37 40 45 52 56 58 59 61
65 65 65 65 66 66 66 65 64 62 60 57 53 50 49 48 46 44 43 43 43 44 44 44 44 46 47 48 49 50 51 53 55 56 56 57 58 59 61 63 63 64 65 66 67 67 66 65 66 66 66 67 68 70 71 72 73 73 73 72 72 73 74 74 73 70 65 58 52 48 45 42 38 33 31 32 34 35 36 40 47 53 57 58 60
66 66 66 66 66 66 65 64 62 59 56 52 49 48 47 46 45 44 44 45 45 45 45 45 46 47 48 49 50 51 53 56 57 57 58 58 59 61 63 64 65 66 66 67 67 67 66 66 66 67 67 68 69 70 71 71 72 72 72 72 72 72 72 73 73 70 65 59 53 49 45 41 39 35 32 30 32 34 35 37 42 49 55 57 59
Wind_Direction
263 260 284 301 315 323 324 324 329 326 318 316 319 320 318 320 326 330 333 337 340 343 346 348 351 352 354 355 356 357 357 357 356 356 357 359 1 2 1 359 357 358 359 1 2 360 355 349 342 338 329 306 282 274 271 266 271 276 270 266 265 267 268 269 269 269 268 264 258 253 246 241 239 239 239 239 239 238 237 236 237 239 242 244 245
253 262 281 295 312 319 321 327 342 343 334 330 330 332 332 332 332 333 334 337 340 343 345 347 349 350 351 353 354 354 355 355 355 355 355 356 358 359 0 359 357 356 357 358 1 1 359 354 347 338 332 322 293 266 261 257 258 261 263 266 266 267 268 268 271 272 271 268 263 257 252 246 243 241 242 241 241 240 239 238 240 242 244 246 246
251 262 277 289 307 315 315 323 344 351 350 347 344 346 347 346 344 340 338 338 339 342 345 346 348 349 349 350 351 352 353 353 353 353 353 354 355 356 358 359 357 355 356 356 358 360 360 357 353 345 334 327 312 275 255 253 256 253 250 257 262 267 269 271 272 271 270 268 264 259 255 251 246 244 243 243 242 242 241 241 243 244 246 247 246
256 261 274 284 298 308 308 313 332 346 355 358 358 1 360 357 353 348 343 340 339 340 343 346 348 349 348 348 349 349 350 351 351 351 351 352 353 354 356 357 356 355 354 353 354 357 358 357 355 352 342 330 323 302 264 250 252 250 245 249 253 257 262 266 270 271 269 266 264 260 256 253 249 246 245 245 245 245 244 244 245 245 246 247 247
260 261 272 280 289 299 298 302 318 328 344 355 360 2 359 357 355 352 347 342 338 338 341 345 348 349 348 347 348 348 349 350 350 350 350 351 352 352 353 355 355 354 353 352 351 352 355 355 354 353 351 340 328 320 294 262 250 247 244 245 248 250 255 259 261 265 267 266 265 262 259 256 252 249 247 247 247 248 248 248 248 247 247 246 246
263 263 271 278 284 291 289 289 303 312 324 335 341 344 347 348 348 350 348 343 339 336 339 343 345 346 347 347 347 347 348 349 349 348 348 348 350 350 351 352 353 353 352 351 349 349 351 353 353 350 350 349 341 330 319 292 264 250 243 243 245 245 250 254 256 260 263 262 263 263 262 260 258 254 251 249 249 249 250 250 250 250 250 248 247
266 265 268 273 278 284 284 285 293 301 310 319 325 331 335 338 339 343 344 341 336 333 335 339 341 343 345 345 346 346 346 347 347 347 346 346 347 348 349 349 350 351 350 349 348 346 347 349 351 350 348 349 349 342 332 317 291 263 246 244 246 244 246 247 248 253 257 255 256 260 263 264 262 258 255 253 252 251 252 252 252 253 253 253 251
270 268 263 265 272 276 277 281 287 291 298 306 314 321 327 330 332 336 339 337 332 329 332 335 337 340 342 344 345 345 344 345 345 345 344 343 344 346 346 347 348 348 348 347 346 344 343 344 346 348 348 347 347 348 342 331 313 285 256 247 248 247 245 246 245 248 250 247 249 257 263 263 263 261 260 258 256 255 254 254 254 254 255 255 255
271 266 255 256 266 270 272 276 281 284 289 296 306 314 320 323 326 331 334 333 329 326 327 331 335 337 339 341 344 343 342 342 343 343 342 340 341 343 344 344 345 346 346 344 344 343 340 340 342 344 345 345 344 345 345 340 329 307 278 258 253 251 248 249 252 252 249 245 248 260 265 262 261 263 265 266 263 259 257 256 256 256 256 256 256
268 256 248 252 261 267 271 273 275 278 284 294 303 309 314 318 323 327 328 328 326 322 323 328 332 334 336 339 342 342 339 339 341 341 340 339 339 340 341 342 343 343 343 342 342 342 339 336 337 339 341 341 341 339 339 339 336 325 303 278 265 260 255 252 253 253 251 247 250 259 260 257 258 261 265 267 266 262 259 258 258 258 257 256 256
261 246 246 252 258 265 269 271 271 273 283 293 299 304 309 315 320 323 324 323 321 318 319 326 330 331 333 337 340 340 338 337 338 339 338 337 336 337 338 339 340 341 341 341 340 340 337 333 332 333 335 336 336 334 334 333 331 328 319 302 282 268 261 256 252 251 249 246 247 250 250 250 253 256 260 264 265 263 261 260 259 258 258 257 256
261 249 250 255 260 265 267 267 267 270 281 289 295 300 305 311 316 319 321 319 317 315 318 323 327 329 332 334 337 338 336 335 336 336 335 334 334 335 336 336 337 339 339 339 338 338 335 331 328 328 329 331 330 330 329 327 325 323 319 313 302 286 271 261 256 254 251 248 247 248 247 247 249 251 254 257 260 260 260 261 259 257 258 258 258
264 256 257 262 265 265 263 262 264 269 278 285 292 298 302 306 311 317 320 317 313 312 316 321 324 328 330 331 333 335 335 334 334 334 332 331 332 332 333 334 335 336 337 336 335 335 333 329 325 324 324 324 324 325 324 322 320 316 313 310 307 300 289 274 263 258 254 251 249 250 250 247 246 248 249 252 255 257 259 261 259 256 257 258 258
264 259 262 267 267 264 261 260 263 268 274 281 289 295 299 303 309 314 318 316 311 309 313 318 322 326 328 329 330 331 333 333 332 333 331 328 329 330 330 331 332 333 333 333 332 331 331 327 323 320 319 318 318 318 319 318 316 312 307 303 301 299 296 289 276 265 258 252 248 248 251 250 247 246 247 248 251 254 257 259 257 255 256 258 258
263 262 266 270 269 265 260 259 263 267 273 280 288 294 298 302 307 311 314 313 309 307 311 316 320 323 325 326 328 328 330 331 329 329 329 328 328 328 328 328 329 329 329 329 329 328 328 326 321 318 315 314 314 314 314 315 315 314 307 298 294 293 292 291 286 277 267 257 250 246 247 249 249 248 248 249 249 251 253 255 255 254 255 258 259
265 265 270 273 274 268 262 262 265 269 275 282 288 294 298 303 307 309 309 309 307 307 310 314 318 320 321 323 325 326 328 329 328 325 325 326 326 326 325 326 326 326 326 326 325 325 325 324 320 316 313 311 311 311 312 312 313 315 312 302 293 291 290 289 286 282 276 268 259 250 245 245 247 248 250 249 248 247 249 252 253 253 253 256 260
271 269 273 279 277 271 266 265 267 271 277 283 290 294 299 303 306 307 307 306 306 307 310 313 315 317 318 320 322 323 325 327 327 325 323 323 323 323 323 323 324 324 323 323 322 322 323 322 318 314 310 308 308 308 309 310 312 313 313 306 296 291 290 289 287 283 279 274 268 260 250 245 244 245 246 246 246 246 247 249 251 252 252 254 258
272 271 275 279 276 270 267 267 269 273 279 285 290 294 298 301 304 305 304 304 304 306 309 312 313 314 316 318 319 320 322 324 325 325 324 322 320 321 321 321 322 321 320 320 320 320 321 320 317 313 309 306 305 305 306 308 310 311 312 307 298 292 290 289 288 285 281 276 271 267 260 251 245 243 242 242 243 245 244 245 248 251 251 252 254
267 270 274 276 274 269 268 270 274 278 283 287 290 293 297 299 301 302 302 302 303 304 308 310 311 312 314 315 316 318 320 321 322 322 324 323 321 318 318 318 318 317 316 316 317 318 319 318 315 312 309 307 305 305 306 307 309 310 311 307 300 294 291 288 287 285 283 279 274 269 266 259 250 244 242 241 241 241 242 243 246 249 250 250 252
263 266 270 272 271 270 272 274 278 282 285 288 290 293 295 297 298 299 300 300 301 304 306 308 309 310 312 313 314 316 318 319 319 319 320 322 322 320 317 315 314 313 312 312 314 316 317 316 313 311 309 307 305 304 305 306 309 310 309 306 302 297 294 291 289 287 284 281 278 273 268 265 259 250 243 241 240 239 239 240 243 246 248 249 251
261 265 269 269 268 270 273 275 279 283 286 289 290 292 294 295 297 298 299 299 301 303 305 306 307 308 310 311 312 315 317 317 316 316 317 318 320 321 319 315 313 311 310 311 312 314 315 313 311 310 308 306 305 303 304 306 308 309 308 306 303 300 297 295 293 291 288 284 279 275 271 267 264 258 249 242 239 239 239 239 239 241 244 248 250
262 266 268 267 269 272 273 275 280 285 288 289 291 293 294 295 296 297 298 300 301 302 303 304 305 307 308 310 312 314 315 314 314 314 314 316 317 318 319 317 313 311 310 311 312 313 313 311 310 308 307 306 305 304 305 306 307 308 307 305 303 303 301 299 297 294 291 286 280 275 272 269 265 262 255 246 239 239 240 239 239 240 242 245 247
263 265 264 265 272 275 274 277 282 286 289 290 292 293 295 295 295 296 298 299 301 301 301 302 303 305 307 309 311 313 313 312 312 312 313 314 315 315 316 316 315 312 310 310 311 311 311 310 309 308 306 306 305 305 305 306 307 307 305 304 305 304 303 301 298 295 291 286 281 275 272 270 267 263 259 252 242 237 239 240 240 241 242 243 245
261 263 263 267 271 273 274 277 280 284 286 289 291 292 293 294 294 296 298 299 299 298 299 301 302 304 306 308 310 311 311 311 310 311 312 312 312 313 313 314 314 312 310 311 311 310 310 309 308 307 306 305 304 305 305 306 306 305 304 305 305 303 302 300 298 294 289 284 280 276 273 271 269 266 261 257 247 238 236 237 238 238 239 241 244
262 265 267 269 270 271 271 273 276 280 283 286 289 291 291 292 293 295 297 297 297 297 298 300 301 303 305 307 309 310 309 309 310 310 311 310 310 310 311 312 312 310 309 311 311 310 310 309 308 307 306 305 305 305 305 305 304 304 305 306 304 302 300 298 295 292 288 283 280 277 275 273 271 269 264 259 252 242 234 232 234 235 234 236 241
267 271 270 267 266 267 268 271 275 279 282 285 287 289 290 290 292 294 295 296 295 296 297 299 301 302 304 307 308 308 308 308 309 309 309 308 308 308 309 310 309 308 308 310 311 310 309 309 308 307 307 306 305 305 305 304 304 306 307 305 303 302 301 298 294 291 287 285 283 280 278 276 274 272 268 262 255 246 235 230 231 234 234 235 237
274 271 262 260 264 267 270 274 278 281 282 284 287 288 288 289 291 293 294 294 294 295 297 298 300 302 303 305 306 307 307 308 308 308 307 306 306 307 307 307 308 308 308 309 310 310 310 309 308 307 307 306 305 305 305 305 306 308 306 304 303 303 301 298 295 293 290 288 287 285 282 281 279 277 273 267 258 248 237 229 229 234 235 234 234
267 258 257 265 272 273 275 278 281 284 285 284 285 287 286 287 290 292 293 293 293 294 295 297 299 301 302 304 305 305 306 307 307 306 305 305 305 305 305 306 307 309 308 308 309 310 309 309 309 307 307 306 306 305 305 305 307 307 305 304 304 303 302 300 298 296 294 292 291 290 288 286 284 281 277 271 261 250 240 229 225 230 234 231 232
259 259 266 272 275 275 278 280 283 285 286 286 285 284 284 287 290 291 291 291 292 293 294 296 298 300 301 302 303 304 306 306 305 304 304 303 303 303 304 306 307 308 309 309 310 310 309 309 308 308 307 307 306 306 305 306 306 305 304 305 305 304 303 301 300 300 299 297 296 294 293 290 288 285 280 273 263 251 242 230 222 225 232 230 231
259 266 270 271 274 277 278 280 282 284 286 286 284 282 283 287 288 289 288 288 289 291 293 295 296 298 300 301 302 304 305 304 302 302 302 302 302 303 304 306 306 307 309 310 311 310 310 309 309 309 309 308 307 307 307 307 305 304 305 306 306 305 305 304 304 304 302 301 300 297 296 293 290 287 281 273 263 251 242 233 223 223 229 230 229
255 259 264 269 273 274 275 276 278 281 285 286 284 282 284 286 286 285 285 286 288 290 292 293 295 297 299 300 302 303 303 301 300 300 300 300 302 303 305 305 307 308 310 311 310 310 310 310 310 310 309 309 308 309 308 307 305 306 307 308 308 308 308 308 308 307 306 304 302 299 297 294 290 287 281 272 263 252 242 234 226 224 227 229 228
252 252 256 263 267 267 269 272 277 282 285 284 283 283 284 285 285 284 284 286 288 290 291 293 295 297 298 300 302 302 301 299 299 299 299 300 302 304 305 306 308 309 310 310 309 309 310 310 311 310 309 309 309 309 309 308 308 309 310 310 311 312 313 313 312 310 308 305 303 300 297 294 290 285 280 271 262 253 243 235 228 225 226 228 228
249 250 252 256 260 263 268 275 281 284 283 282 282 283 285 284 283 283 284 286 288 289 291 292 295 297 299 300 300 299 298 297 298 298 299 301 302 304 305 307 309 309 309 309 309 310 310 310 310 309 309 309 309 309 309 309 310 311 312 313 314 315 315 315 313 311 309 306 303 300 297 293 288 283 278 270 260 253 244 235 229 226 225 227 228
247 247 248 252 256 263 272 279 283 283 281 281 281 282 282 282 282 283 285 287 288 289 291 293 295 297 298 299 298 297 296 296 297 298 299 301 302 304 306 308 309 309 309 310 310 310 310 310 309 309 308 308 308 308 309 310 311 312 313 314 315 316 316 315 313 311 309 306 303 300 296 292 287 281 275 268 260 253 245 236 230 225 224 226 228
250 248 249 252 256 264 274 278 280 280 280 279 278 279 280 281 282 283 285 287 287 289 292 294 296 296 297 297 296 295 295 295 297 298 299 300 302 305 308 309 309 309 310 311 311 310 310 310 310 309 308 308 308 309 310 311 313 314 315 317 318 317 317 316 314 312 309 306 302 298 294 290 285 279 273 266 258 252 245 238 231 226 224 224 226
249 248 250 253 256 263 273 277 277 277 277 276 276 277 278 279 281 283 286 287 287 290 293 294 295 295 295 295 294 294 294 295 297 298 299 301 304 307 308 309 309 310 311 312 312 311 311 311 311 310 309 310 311 312 313 314 316 318 319 320 319 319 318 317 316 313 310 306 302 297 293 289 284 277 271 264 257 251 245 239 232 226 224 223 225
240 244 248 251 255 263 272 275 275 274 274 274 273 273 274 278 282 285 286 287 289 292 294 294 295 294 294 294 293 293 294 295 297 298 300 303 306 308 309 309 310 312 313 313 313 313 313 312 312 311 312 313 314 315 316 317 319 320 321 320 320 320 320 319 317 314 311 307 302 297 291 286 282 276 270 263 256 249 244 238 233 227 224 223 224
234 241 246 250 255 264 272 275 274 273 272 270 269 270 274 280 285 287 288 290 292 294 295 294 294 293 293 292 292 293 294 296 297 299 302 305 308 309 310 310 311 313 314 314 314 314 314 314 314 314 315 315 316 317 318 320 321 321 320 320 321 320 320 319 318 315 312 308 303 298 292 285 279 274 269 262 256 249 243 238 233 228 224 222 222
237 243 247 252 259 268 274 275 271 269 268 267 267 271 278 284 286 287 289 292 294 295 295 293 292 292 291 290 291 293 295 296 298 300 304 307 309 309 310 311 313 314 315 315 316 316 317 317 316 316 317 317 317 318 320 321 320 320 321 321 321 321 321 321 320 318 314 308 302 297 292 285 278 272 268 262 256 250 243 237 233 229 225 222 220
240 246 250 256 264 270 273 271 268 267 267 265 267 273 280 284 285 287 289 291 293 295 294 292 290 289 288 289 291 293 295 297 299 303 307 309 310 310 311 312 314 315 316 316 317 318 319 319 318 318 318 318 318 319 320 320 320 321 322 322 322 323 324 324 323 321 317 311 305 297 289 284 278 271 266 261 256 251 245 238 232 229 225 222 220
243 250 255 260 265 267 267 267 266 265 264 264 269 275 279 282 283 285 287 290 293 295 293 289 287 286 287 289 291 293 295 297 301 306 310 311 311 311 312 314 315 316 317 317 319 320 320 320 319 319 318 318 319 320 320 320 321 322 323 323 324 325 326 325 324 321 319 314 308 300 291 283 277 270 265 261 256 250 245 240 233 229 226 223 221
248 255 260 261 263 263 262 263 262 262 264 268 272 274 277 280 283 285 289 292 295 295 290 285 284 285 288 289 291 293 295 298 304 310 312 313 312 313 313 315 316 317 317 318 320 322 322 321 320 319 319 319 320 320 320 321 322 323 324 325 326 326 327 326 325 323 320 316 310 302 294 286 278 270 263 259 256 250 245 241 235 229 226 223 221
251 256 257 256 257 257 257 258 258 261 265 269 271 274 277 282 286 289 292 295 295 291 284 283 285 286 288 289 291 293 295 301 308 312 313 314 313 313 314 316 317 317 317 318 321 323 323 322 321 320 319 320 320 320 320 321 322 323 325 326 326 327 328 328 327 326 323 320 313 305 296 288 280 272 264 258 254 251 245 241 236 231 227 224 222
251 253 251 249 249 250 252 255 258 264 269 273 277 281 284 287 289 291 293 293 290 284 281 284 286 286 287 290 292 294 298 305 310 313 314 315 314 314 315 316 317 317 318 320 323 324 324 323 321 320 320 320 320 320 320 321 323 324 326 327 328 328 329 329 329 328 326 323 317 308 299 291 284 276 267 258 253 250 246 241 237 233 228 225 222
249 251 250 248 249 251 255 259 264 270 274 278 282 285 287 289 289 290 290 288 283 280 282 284 284 286 289 290 292 296 302 308 312 314 315 315 314 314 316 317 318 318 320 322 324 325 324 323 322 321 320 320 320 320 321 322 324 325 326 327 328 329 330 331 331 331 329 325 319 312 303 295 287 281 273 263 254 248 246 243 238 233 230 226 223
248 249 251 252 255 258 260 263 267 271 275 278 281 283 286 287 288 287 285 282 280 281 282 282 284 287 289 290 293 299 305 310 313 314 315 314 313 315 317 319 320 320 322 324 325 324 323 322 321 321 320 320 321 321 322 323 324 325 326 327 328 329 331 332 332 332 331 327 322 316 309 300 291 284 277 269 259 250 245 243 240 235 231 227 224
247 248 251 253 257 259 262 265 268 271 275 277 280 283 284 285 285 283 281 279 279 280 280 283 286 287 288 291 296 302 308 312 313 314 314 313 313 316 319 320 321 322 323 324 324 323 322 321 321 321 320 321 321 321 322 323 324 325 326 328 329 330 331 331 332 333 332 328 324 320 314 307 297 287 280 273 264 254 246 242 240 237 232 228 225
246 248 251 253 256 259 262 265 268 271 275 278 280 282 283 283 281 279 278 277 277 278 281 284 285 286 289 293 299 305 309 311 312 314 313 312 313 317 320 321 322 323 323 324 323 322 322 321 321 321 321 321 321 321 322 322 324 325 326 328 329 330 331 331 333 334 333 330 326 323 318 312 304 293 283 276 268 259 250 243 239 237 235 230 226
246 248 251 254 256 259 262 265 269 272 274 277 279 280 280 279 278 276 275 275 276 279 283 284 285 287 291 296 302 306 309 310 313 313 312 313 316 319 321 322 323 324 323 323 322 322 322 321 321 321 321 321 321 321 322 322 323 325 326 328 329 330 331 332 333 334 334 331 328 325 321 316 310 299 286 277 270 262 254 246 239 237 235 232 228
247 249 252 255 257 260 263 266 268 271 273 275 275 275 275 275 275 274 273 274 278 281 283 284 286 289 293 298 303 307 309 311 313 312 312 314 318 320 322 323 323 323 323 322 322 321 321 321 321 321 322 322 321 321 322 323 323 325 326 328 329 330 331 332 332 333 334 332 330 327 323 318 312 304 292 280 272 265 257 249 242 237 235 233 230
249 251 253 255 258 261 263 266 269 270 271 271 271 272 273 273 273 272 272 275 279 281 283 285 287 290 294 299 304 307 310 311 311 312 313 316 319 320 322 322 323 323 322 321 321 321 321 320 321 321 322 322 321 321 322 323 324 325 327 328 329 331 331 331 332 333 334 334 332 329 325 320 313 307 298 285 274 267 259 251 244 239 235 233 231
Height
10821 10821 10820 10820 10819 10818 10817 10815 10814 10814 10813 10813 10813 10812 10812 10811 10810 10808 10806 10804 10802 10801 10798 10796 10794 10792 10789 10787 10785 10782 10780 10777 10775 10772 10770 10768 10765 10762 10759 10756 10753 10751 10748 10745 10743 10740 10737 10735 10733 10732 10730 10729 10728 10728 10728 10727 10727 10727 10726 10726 10726 10726 10727 10727 10727 10727 10727 10727 10728 10728 10728 10728 10728 10729 10729 10730 10731 10731 10732 10733 10733 10733 10734 10734 10735
10819 10819 10818 10818 10817 10816 10815 10814 10813 10813 10812 10811 10811 10811 10810 10810 10808 10807 10805 10803 10801 10799 10798 10795 10793 10791 10788 10786 10784 10781 10779 10776 10774 10772 10770 10767 10765 10762 10759 10756 10753 10750 10747 10745 10743 10740 10737 10735 10733 10731 10729 10728 10727 10727 10727 10726 10726 10726 10726 10725 10725 10725 10725 10725 10725 10725 10726 10726 10726 10726 10726 10726 10727 10727 10727 10728 10729 10729 10730 10731 10731 10731 10732 10732 10733
10817 10817 10817 10816 10816 10815 10814 10813 10812 10812 10811 10810 10810 10809 10809 10808 10807 10805 10804 10802 10800 10798 10797 10795 10792 10790 10788 10786 10783 10781 10778 10776 10773 10771 10769 10766 10764 10761 10758 10755 10752 10749 10746 10744 10742 10739 10737 10735 10733 10731 10729 10727 10726 10726 10725 10725 10724 10725 10725 10724 10724 10724 10724 10724 10724 10724 10724 10724 10724 10724 10724 10725 10725 10725 10726 10726 10727 10727 10728 10728 10729 10729 10730 10730 10730
10815 10815 10815 10815 10814 10813 10812 10811 10811 10810 10810 10809 10809 10808 10807 10806 10805 10804 10802 10801 10799 10797 10796 10794 10792 10790 10787 10785 10783 10780 10778 10775 10773 10770 10768 10765 10763 10760 10757 10754 10752 10749 10746 10743 10741 10739 10736 10734 10732 10730 10728 10726 10725 10724 10723 10723 10723 10723 10723 10724 10723 10723 10723 10722 10722 10722 10722 10722 10722 10722 10722 10723 10723 10723 10723 10724 10724 10725 10726 10726 10726 10727 10727 10728 10728
10813 10813 10813 10813 10813 10812 10811 10810 10809 10809 10808 10808 10807 10807 10806 10805 10804 10803 10801 10799 10798 10796 10795 10793 10791 10789 10787 10785 10783 10780 10777 10775 10772 10770 10767 10764 10761 10758 10756 10753 10751 10748 10746 10743 10740 10738 10736 10734 10732 10730 10728 10726 10724 10723 10722 10721 10721 10721 10722 10722 10722 10722 10721 10721 10720 10720 10720 10720 10720 10720 10720 10720 10721 10721 10721 10722 10722 10722 10723 10723 10724 10724 10725 10725 10725
10811 10811 10811 10811 10811 10810 10810 10809 10808 10807 10807 10806 10806 10805 10804 10803 10803 10802 10800 10798 10797 10795 10794 10792 10790 10788 10786 10784 10782 10779 10776 10774 10771 10768 10765 10763 10761 10758 10755 10753 10750 10748 10746 10743 10740 10737 10735 10733 10731 10729 10727 10725 10723 10721 10720 10720 10719 10719 10720 10721 10720 10720 10719 10718 10718 10718 10718 10718 10718 10718 10718 10718 10718 10718 10719 10719 10719 10720 10720 10721 10721 10722 10722 10722 10723
10808 10808 10809 10809 10809 10808 10808 10807 10806 10806 10805 10804 10804 10803 10802 10802 10801 10800 10799 10797 10795 10794 10792 10791 10789 10787 10785 10783 10780 10777 10775 10772 10769 10767 10764 10762 10760 10757 10754 10752 10749 10747 10745 10742 10739 10737 10735 10732 10730 10728 10726 10724 10722 10720 10719 10718 10718 10717 10718 10719 10717 10717 10716 10716 10716 10716 10715 10715 10715 10715 10715 10715 10715 10715 10716 10716 10716 10717 10717 10717 10718 10719 10719 10720 10720
10805 10806 10806 10806 10806 10806 10806 10806 10805 10804 10803 10803 10802 10801 10801 10800 10799 10798 10797 10796 10794 10792 10790 10789 10787 10785 10783 10781 10778 10776 10773 10771 10769 10766 10763 10761 10758 10756 10753 10751 10748 10746 10744 10741 10738 10736 10734 10731 10729 10727 10725 10723 10721 10719 10718 10717 10716 10716 10716 10716 10714 10713 10713 10713 10714 10714 10713 10713 10712 10712 10713 10712 10712 10712 10713 10713 10713 10714 10714 10714 10715 10715 10716 10716 10717
10802 10803 10804 10804 10804 10804 10804 10804 10803 10802 10801 10801 10800 10799 10799 10798 10797 10796 10795 10794 10792 10790 10789 10787 10785 10783 10782 10779 10777 10774 10772 10770 10768 10765 10762 10759 10757 10755 10752 10750 10747 10745 10742 10740 10737 10735 10732 10730 10728 10725 10724 10722 10720 10718 10717 10716 10715 10714 10713 10712 10711 10710 10711 10711 10712 10711 10711 10710 10710 10710 10710 10710 10710 10710 10710 10710 10710 10711 10711 10711 10711 10712 10712 10713 10713
10799 10800 10801 10801 10802 10802 10802 10801 10801 10800 10800 10799 10798 10797 10796 10796 10795 10794 10793 10792 10790 10789 10787 10785 10784 10782 10780 10777 10775 10772 10770 10768 10766 10763 10761 10758 10755 10753 10750 10748 10745 10743 10741 10738 10736 10733 10731 10728 10726 10724 10722 10720 10719 10717 10715 10714 10713 10712 10711 10710 10709 10707 10708 10709 10709 10709 10708 10708 10707 10707 10707 10707 10706 10706 10706 10707 10707 10707 10707 10707 10707 10708 10708 10709 10709
10796 10797 10798 10798 10799 10800 10800 10799 10798 10798 10797 10797 10796 10795 10794 10794 10793 10792 10791 10789 10788 10786 10785 10784 10782 10780 10778 10775 10773 10771 10768 10766 10764 10761 10759 10756 10753 10751 10748 10745 10743 10740 10738 10736 10734 10731 10729 10726 10724 10722 10720 10719 10717 10715 10714 10713 10711 10710 10709 10708 10706 10705 10704 10705 10705 10705 10705 10705 10704 10704 10703 10703 10703 10703 10703 10703 10703 10703 10703 10704 10704 10704 10704 10705 10705
10794 10794 10795 10796 10796 10797 10797 10796 10796 10796 10795 10794 10794 10793 10792 10791 10790 10789 10788 10787 10786 10784 10783 10782 10780 10778 10776 10773 10771 10769 10766 10763 10761 10759 10756 10754 10751 10749 10746 10743 10740 10737 10735 10733 10731 10729 10727 10724 10722 10720 10719 10717 10715 10714 10712 10711 10709 10708 10707 10706 10704 10703 10702 10702 10701 10701 10701 10701 10700 10700 10700 10700 10699 10699 10699 10699 10699 10699 10699 10700 10700 10700 10700 10701 10701
10791 10792 10792 10793 10793 10794 10794 10793 10793 10793 10792 10792 10791 10791 10790 10789 10788 10787 10785 10784 10783 10782 10781 10780 10778 10776 10773 10771 10769 10767 10764 10761 10759 10756 10754 10751 10750 10747 10744 10741 10738 10735 10732 10730 10728 10726 10725 10722 10720 10718 10716 10715 10713 10712 10710 10709 10707 10705 10704 10703 10701 10700 10699 10698 10698 10696 10695 10696 10695 10695 10695 10696 10695 10695 10695 10694 10694 10695 10695 10696 10696 10696 10696 10696 10697
10789 10789 10789 10790 10790 10790 10790 10790 10790 10789 10789 10789 10789 10788 10787 10786 10785 10784 10783 10782 10781 10779 10778 10777 10775 10773 10771 10768 10766 10764 10762 10759 10756 10754 10752 10750 10747 10745 10742 10739 10736 10733 10730 10728 10726 10724 10722 10720 10718 10716 10714 10712 10711 10709 10708 10707 10705 10703 10701 10700 10698 10697 10695 10695 10694 10692 10691 10690 10690 10690 10690 10691 10691 10691 10691 10690 10690 10691 10691 10692 10692 10692 10692 10692 10693
10786 10786 10786 10786 10786 10787 10787 10787 10786 10786 10786 10786 10786 10785 10784 10783 10782 10781 10780 10779 10778 10777 10775 10774 10772 10771 10769 10767 10764 10762 10759 10756 10753 10750 10749 10747 10745 10743 10740 10737 10734 10731 10728 10725 10723 10721 10719 10717 10715 10713 10711 10709 10707 10706 10704 10703 10702 10701 10699 10697 10695 10693 10692 10691 10690 10688 10687 10686 10685 10685 10684 10685 10686 10686 10686 10687 10687 10687 10687 10687 10687 10688 10688 10688 10689
10783 10783 10783 10783 10783 10783 10783 10783 10783 10783 10783 10783 10782 10782 10781 10780 10779 10778 10777 10776 10775 10774 10772 10771 10769 10768 10766 10765 10763 10760 10757 10755 10751 10747 10744 10743 10741 10739 10737 10734 10731 10728 10726 10723 10720 10718 10716 10715 10712 10710 10707 10705 10704 10702 10700 10699 10698 10696 10695 10693 10691 10689 10688 10687 10686 10684 10683 10681 10680 10679 10679 10679 10680 10681 10682 10683 10683 10682 10682 10682 10682 10683 10683 10684 10684
10780 10780 10780 10780 10780 10780 10780 10780 10780 10780 10780 10780 10779 10778 10778 10777 10776 10775 10773 10772 10771 10770 10769 10768 10766 10765 10763 10761 10759 10757 10755 10753 10751 10747 10743 10739 10736 10735 10732 10730 10727 10724 10722 10719 10717 10714 10713 10711 10710 10707 10705 10702 10700 10698 10696 10695 10693 10692 10690 10689 10687 10685 10683 10682 10681 10680 10678 10677 10675 10674 10673 10673 10674 10675 10676 10677 10677 10676 10677 10676 10676 10677 10678 10679 10680
10777 10777 10777 10778 10777 10777 10776 10776 10777 10777 10777 10776 10776 10775 10775 10774 10773 10771 10770 10769 10768 10767 10766 10765 10763 10761 10760 10758 10756 10754 10752 10750 10749 10747 10744 10739 10734 10731 10728 10725 10722 10719 10717 10715 10713 10710 10708 10707 10705 10704 10702 10699 10697 10695 10693 10691 10689 10687 10685 10684 10682 10680 10679 10677 10676 10675 10674 10672 10671 10669 10668 10668 10667 10668 10670 10670 10671 10671 10671 10670 10670 10672 10673 10674 10675
10774 10774 10775 10776 10775 10773 10773 10773 10774 10774 10774 10773 10773 10772 10771 10771 10770 10769 10767 10766 10765 10764 10763 10762 10760 10758 10756 10754 10752 10750 10748 10746 10744 10743 10743 10741 10736 10731 10726 10723 10719 10716 10713 10710 10708 10706 10704 10702 10701 10699 10697 10695 10693 10691 10689 10687 10685 10683 10680 10679 10677 10675 10673 10672 10670 10669 10668 10667 10666 10665 10663 10663 10662 10662 10663 10664 10665 10666 10666 10666 10666 10667 10668 10669 10670
10772 10772 10772 10773 10772 10770 10770 10771 10771 10771 10770 10770 10769 10769 10768 10767 10767 10765 10764 10763 10762 10761 10759 10758 10756 10755 10753 10750 10748 10746 10743 10741 10739 10737 10736 10737 10736 10733 10728 10723 10718 10714 10711 10708 10705 10702 10700 10698 10696 10694 10692 10690 10688 10686 10684 10682 10680 10678 10676 10673 10671 10669 10667 10666 10664 10663 10662 10661 10660 10659 10658 10658 10657 10657 10657 10658 10658 10659 10660 10661 10662 10661 10662 10664 10665
10769 10770 10770 10769 10768 10767 10767 10767 10767 10767 10767 10766 10766 10765 10765 10764 10763 10762 10761 10760 10759 10758 10756 10755 10753 10751 10749 10747 10744 10742 10739 10736 10734 10732 10729 10729 10729 10730 10728 10724 10718 10713 10709 10705 10702 10699 10697 10695 10692 10690 10688 10686 10684 10682 10680 10677 10675 10673 10671 10668 10666 10663 10661 10659 10658 10657 10656 10655 10654 10653 10652 10652 10651 10651 10650 10651 10652 10652 10654 10655 10656 10656 10656 10658 10659
10766 10768 10769 10766 10765 10765 10764 10764 10764 10763 10763 10762 10762 10762 10762 10761 10760 10759 10758 10757 10756 10755 10753 10752 10750 10748 10746 10743 10741 10738 10735 10732 10730 10727 10724 10722 10721 10721 10721 10720 10717 10712 10707 10703 10699 10696 10693 10690 10688 10686 10683 10681 10679 10677 10675 10673 10671 10668 10665 10663 10660 10657 10655 10653 10652 10650 10649 10648 10647 10646 10645 10645 10645 10644 10643 10643 10644 10645 10647 10649 10650 10651 10651 10652 10653
10763 10766 10767 10764 10762 10762 10761 10761 10761 10760 10759 10759 10759 10759 10758 10758 10757 10756 10755 10754 10752 10751 10750 10748 10746 10744 10742 10740 10737 10734 10731 10729 10726 10723 10720 10717 10715 10713 10712 10712 10710 10707 10704 10701 10698 10693 10689 10686 10684 10681 10678 10676 10674 10672 10670 10667 10665 10663 10661 10658 10654 10651 10649 10647 10645 10644 10642 10641 10640 10640 10638 10637 10637 10637 10636 10636 10636 10638 10641 10642 10643 10645 10646 10646 10648
10759 10761 10762 10760 10759 10758 10758 10758 10757 10756 10756 10756 10756 10756 10755 10754 10753 10752 10751 10750 10749 10748 10746 10745 10743 10741 10739 10736 10733 10730 10727 10724 10722 10719 10716 10713 10711 10708 10706 10705 10703 10700 10698 10696 10694 10690 10686 10682 10679 10677 10674 10671 10669 10667 10665 10662 10660 10658 10656 10652 10649 10645 10643 10640 10638 10637 10636 10634 10633 10632 10631 10630 10629 10629 10628 10628 10629 10631 10634 10635 10637 10639 10641 10642 10642
10755 10756 10756 10755 10755 10754 10754 10754 10753 10753 10753 10753 10753 10752 10751 10750 10749 10748 10747 10746 10745 10744 10742 10741 10739 10737 10735 10732 10729 10726 10723 10720 10717 10715 10712 10709 10706 10704 10702 10700 10697 10694 10692 10690 10688 10685 10682 10678 10675 10672 10669 10666 10664 10661 10659 10657 10654 10652 10650 10646 10643 10639 10637 10634 10632 10630 10628 10627 10626 10625 10624 10622 10621 10620 10620 10620 10621 10623 10625 10629 10632 10634 10635 10637 10637
10750 10751 10750 10749 10749 10749 10749 10749 10749 10749 10749 10749 10749 10748 10747 10746 10746 10745 10744 10742 10741 10740 10738 10737 10735 10733 10731 10728 10725 10722 10719 10716 10713 10710 10707 10704 10701 10699 10698 10696 10693 10689 10686 10684 10682 10679 10677 10674 10671 10667 10664 10661 10658 10655 10653 10651 10649 10646 10643 10640 10636 10633 10630 10628 10625 10623 10621 10619 10618 10617 10615 10614 10613 10611 10610 10611 10612 10614 10616 10621 10626 10627 10629 10631 10632
10745 10744 10744 10743 10743 10744 10744 10745 10745 10745 10746 10745 10745 10745 10744 10743 10742 10741 10740 10738 10737 10736 10734 10733 10731 10729 10727 10724 10721 10718 10715 10712 10709 10706 10703 10700 10697 10694 10692 10690 10689 10686 10682 10678 10676 10673 10671 10669 10666 10663 10660 10657 10653 10649 10646 10644 10642 10639 10637 10634 10630 10627 10624 10621 10619 10616 10614 10612 10610 10608 10607 10605 10604 10602 10601 10601 10602 10604 10607 10612 10618 10622 10623 10624 10625
10740 10738 10737 10738 10738 10738 10739 10740 10741 10741 10741 10741 10741 10741 10740 10739 10738 10737 10736 10734 10733 10732 10730 10728 10727 10725 10723 10720 10717 10714 10711 10708 10705 10701 10698 10695 10693 10690 10687 10684 10682 10681 10678 10674 10671 10668 10665 10663 10661 10659 10655 10652 10649 10645 10641 10638 10635 10633 10631 10628 10624 10621 10618 10615 10612 10609 10607 10604 10602 10599 10598 10596 10595 10593 10592 10591 10592 10594 10597 10602 10610 10614 10613 10614 10615
10736 10733 10732 10733 10733 10734 10735 10736 10737 10737 10737 10737 10737 10736 10735 10735 10734 10733 10731 10730 10728 10727 10726 10724 10723 10721 10718 10716 10713 10710 10707 10704 10700 10697 10694 10691 10688 10685 10682 10679 10676 10674 10672 10669 10666 10664 10661 10658 10656 10653 10650 10647 10644 10640 10637 10633 10630 10627 10625 10622 10618 10615 10612 10609 10605 10602 10599 10597 10594 10591 10589 10587 10586 10584 10583 10582 10582 10584 10587 10592 10599 10601 10600 10602 10605
10733 10728 10726 10728 10729 10730 10731 10732 10733 10733 10732 10732 10732 10732 10731 10730 10729 10728 10726 10725 10724 10723 10721 10720 10718 10716 10714 10711 10708 10705 10702 10699 10696 10693 10690 10687 10684 10681 10678 10675 10672 10669 10666 10663 10660 10657 10655 10652 10649 10647 10643 10640 10638 10635 10631 10628 10625 10621 10618 10615 10612 10608 10605 10602 10599 10595 10592 10589 10586 10583 10580 10578 10577 10575 10574 10573 10573 10575 10577 10581 10587 10589 10588 10592 10596
10730 10725 10722 10724 10725 10725 10726 10727 10728 10728 10728 10728 10728 10727 10726 10725 10724 10723 10722 10721 10720 10719 10717 10715 10714 10711 10709 10707 10704 10701 10698 10695 10692 10689 10686 10683 10680 10677 10674 10671 10668 10665 10662 10658 10655 10651 10648 10645 10642 10640 10637 10633 10630 10627 10625 10622 10619 10615 10611 10607 10605 10601 10598 10594 10591 10588 10584 10581 10578 10575 10572 10569 10567 10566 10566 10565 10565 10566 10568 10572 10576 10578 10579 10583 10588
10726 10722 10719 10720 10721 10720 10721 10722 10723 10724 10724 10723 10723 10722 10721 10720 10719 10719 10718 10717 10716 10714 10713 10711 10709 10707 10704 10702 10699 10696 10693 10690 10687 10685 10682 10679 10676 10673 10671 10668 10665 10661 10658 10654 10651 10647 10643 10640 10636 10633 10630 10627 10624 10620 10617 10614 10612 10608 10604 10599 10596 10593 10590 10586 10582 10579 10576 10572 10569 10566 10563 10560 10558 10557 10557 10557 10557 10557 10559 10562 10566 10569 10571 10575 10579
10721 10717 10715 10717 10717 10715 10716 10717 10718 10719 10719 10718 10717 10717 10716 10716 10715 10714 10713 10713 10711 10710 10708 10706 10704 10702 10699 10697 10694 10691 10688 10685 10683 10680 10677 10675 10672 10669 10666 10664 10661 10657 10654 10651 10647 10643 10639 10636 10632 10628 10624 10621 10618 10615 10611 10607 10604 10601 10598 10594 10589 10585 10582 10578 10574 10571 10567 10563 10559 10557 10554 10552 10550 10549 10548 10548 10549 10549 10551 10553 10557 10560 10564 10567 10571
10716 10712 10711 10713 10712 10711 10712 10712 10713 10714 10714 10713 10713 10712 10712 10712 10711 10710 10709 10708 10707 10705 10704 10702 10700 10697 10694 10692 10689 10686 10684 10681 10678 10676 10673 10670 10668 10665 10662 10659 10656 10653 10650 10646 10643 10639 10636 10632 10628 10624 10620 10617 10613 10610 10606 10602 10598 10594 10591 10588 10583 10579 10574 10570 10566 10563 10559 10555 10551 10547 10545 10543 10542 10540 10540 10540 10541 10541 10542 10545 10548 10552 10555 10559 10563
10711 10708 10707 10708 10708 10707 10708 10708 10709 10710 10709 10708 10708 10708 10708 10708 10707 10706 10705 10704 10702 10701 10699 10697 10695 10692 10689 10687 10684 10682 10679 10677 10674 10672 10669 10666 10664 10661 10658 10655 10652 10649 10645 10642 10639 10635 10631 10627 10623 10620 10616 10613 10609 10604 10600 10596 10592 10587 10583 10580 10576 10572 10568 10563 10558 10554 10550 10546 10543 10539 10536 10534 10533 10532 10532 10532 10532 10533 10534 10537 10539 10543 10547 10551 10554
10707 10703 10702 10703 10703 10703 10704 10704 10705 10705 10704 10704 10704 10704 10704 10703 10703 10702 10701 10700 10698 10696 10694 10692 10689 10687 10684 10682 10679 10677 10674 10672 10670 10667 10665 10662 10659 10657 10653 10650 10647 10644 10641 10637 10634 10630 10626 10622 10618 10615 10611 10607 10602 10597 10593 10589 10585 10580 10575 10571 10567 10564 10560 10555 10550 10545 10541 10537 10534 10531 10528 10526 10524 10523 10523 10523 10524 10525 10526 10528 10531 10535 10539 10543 10546
10701 10696 10696 10698 10698 10700 10701 10700 10700 10700 10700 10700 10699 10700 10700 10699 10699 10698 10697 10695 10694 10692 10689 10687 10684 10682 10680 10677 10675 10672 10670 10668 10665 10663 10660 10657 10655 10652 10649 10645 10642 10639 10636 10632 10628 10624 10620 10617 10613 10609 10605 10600 10596 10591 10586 10582 10578 10573 10569 10564 10559 10555 10551 10547 10542 10536 10531 10528 10525 10523 10520 10518 10516 10515 10514 10515 10516 10517 10518 10520 10523 10526 10530 10534 10538
10694 10690 10691 10694 10695 10696 10697 10696 10696 10695 10695 10695 10695 10695 10695 10695 10694 10693 10692 10691 10689 10687 10684 10682 10680 10677 10675 10673 10670 10668 10666 10663 10661 10658 10656 10653 10650 10647 10644 10640 10637 10634 10630 10626 10622 10619 10615 10611 10607 10602 10598 10593 10589 10585 10580 10575 10571 10566 10563 10558 10553 10548 10544 10539 10535 10529 10524 10519 10515 10512 10511 10509 10507 10506 10505 10505 10507 10508 10510 10511 10514 10518 10522 10526 10530
10686 10685 10688 10691 10692 10692 10692 10691 10691 10691 10691 10691 10691 10691 10691 10691 10690 10689 10687 10686 10684 10682 10680 10677 10675 10673 10671 10669 10666 10664 10661 10659 10656 10654 10651 10649 10646 10642 10639 10636 10632 10629 10625 10621 10617 10614 10609 10605 10600 10596 10591 10587 10583 10578 10574 10569 10565 10560 10556 10551 10546 10541 10535 10530 10525 10520 10516 10512 10507 10503 10500 10499 10498 10497 10496 10496 10497 10499 10501 10503 10505 10509 10513 10517 10522
10682 10683 10685 10687 10688 10687 10687 10686 10687 10687 10687 10686 10686 10687 10687 10686 10685 10684 10682 10681 10679 10678 10675 10673 10670 10669 10667 10665 10662 10660 10657 10655 10652 10650 10647 10644 10641 10637 10634 10631 10628 10624 10621 10617 10612 10608 10604 10599 10594 10589 10585 10581 10576 10572 10568 10564 10559 10554 10549 10544 10539 10533 10527 10522 10516 10510 10506 10502 10498 10494 10491 10489 10488 10487 10487 10487 10488 10489 10492 10494 10496 10499 10504 10508 10513
10680 10681 10682 10683 10683 10682 10682 10682 10682 10683 10683 10682 10682 10683 10682 10681 10680 10679 10678 10676 10675 10673 10670 10668 10666 10664 10663 10660 10658 10656 10653 10651 10648 10646 10643 10639 10635 10632 10629 10626 10623 10619 10616 10612 10607 10603 10598 10593 10589 10584 10579 10575 10570 10566 10561 10557 10552 10547 10542 10537 10531 10526 10520 10515 10509 10503 10497 10492 10487 10483 10480 10478 10478 10477 10477 10477 10478 10480 10482 10484 10487 10490 10494 10499 10503
10677 10677 10678 10678 10678 10677 10677 10678 10678 10679 10679 10678 10678 10678 10677 10676 10675 10674 10672 10671 10670 10668 10665 10663 10661 10660 10658 10656 10654 10652 10650 10647 10645 10642 10638 10634 10631 10627 10624 10621 10618 10614 10610 10606 10602 10597 10592 10588 10583 10578 10574 10569 10564 10559 10554 10549 10544 10539 10534 10528 10523 10517 10511 10506 10501 10495 10489 10483 10478 10473 10469 10467 10466 10467 10467 10467 10468 10470 10472 10475 10477 10481 10484 10489 10494
10673 10673 10673 10672 10672 10672 10672 10673 10674 10674 10674 10674 10673 10673 10672 10671 10670 10668 10667 10666 10664 10662 10660 10658 10657 10655 10653 10651 10649 10647 10645 10643 10640 10637 10634 10630 10626 10623 10620 10617 10613 10609 10605 10601 10596 10591 10586 10581 10577 10572 10567 10563 10558 10553 10548 10542 10537 10531 10526 10520 10514 10508 10502 10496 10490 10484 10479 10473 10468 10464 10460 10457 10455 10455 10456 10457 10458 10460 10462 10465 10468 10471 10474 10479 10484
10668 10667 10667 10666 10666 10667 10667 10668 10669 10669 10669 10669 10668 10668 10667 10665 10664 10663 10662 10660 10659 10657 10655 10653 10652 10650 10648 10646 10644 10642 10640 10638 10635 10632 10629 10625 10622 10619 10616 10612 10608 10604 10600 10595 10590 10585 10580 10575 10570 10566 10561 10556 10551 10546 10541 10535 10530 10523 10517 10511 10505 10499 10493 10487 10481 10475 10469 10464 10459 10455 10451 10448 10446 10445 10445 10447 10449 10450 10452 10455 10458 10461 10464 10469 10474
10661 10661 10661 10660 10660 10661 10661 10662 10663 10663 10663 10663 10663 10662 10661 10660 10659 10658 10656 10655 10654 10652 10650 10648 10647 10645 10643 10641 10639 10637 10634 10632 10629 10626 10623 10620 10617 10614 10610 10607 10603 10598 10594 10589 10583 10578 10573 10568 10564 10559 10554 10550 10545 10539 10533 10528 10522 10516 10510 10504 10497 10491 10484 10478 10472 10465 10459 10454 10450 10446 10443 10441 10438 10436 10435 10436 10439 10441 10442 10445 10449 10452 10455 10459 10464
10653 10653 10654 10654 10654 10655 10656 10657 10657 10658 10658 10658 10658 10657 10656 10656 10654 10653 10651 10650 10649 10647 10645 10643 10642 10640 10638 10636 10634 10631 10629 10626 10623 10621 10618 10615 10612 10608 10604 10600 10596 10591 10586 10581 10576 10571 10567 10562 10557 10553 10548 10543 10537 10532 10526 10520 10515 10509 10503 10497 10490 10484 10477 10470 10464 10458 10451 10446 10442 10438 10436 10433 10431 10429 10427 10427 10429 10431 10434 10436 10439 10443 10447 10450 10455
10646 10646 10647 10648 10649 10649 10650 10651 10652 10652 10652 10652 10652 10652 10651 10650 10649 10648 10647 10645 10643 10642 10640 10638 10637 10635 10633 10630 10628 10625 10623 10620 10617 10615 10613 10610 10607 10603 10599 10594 10589 10584 10579 10575 10570 10566 10561 10556 10552 10546 10541 10536 10531 10525 10520 10514 10508 10502 10496 10490 10484 10478 10472 10465 10459 10453 10446 10440 10435 10431 10428 10426 10425 10422 10420 10419 10420 10421 10424 10428 10431 10434 10438 10442 10445
10640 10641 10643 10643 10644 10645 10646 10646 10646 10647 10647 10647 10646 10646 10645 10644 10643 10642 10641 10639 10638 10636 10635 10633 10632 10630 10627 10625 10622 10620 10617 10614 10612 10609 10607 10604 10601 10597 10593 10588 10583 10579 10574 10569 10564 10560 10555 10550 10545 10540 10535 10530 10524 10519 10513 10507 10501 10496 10490 10485 10479 10472 10466 10459 10453 10447 10440 10434 10429 10425 10421 10419 10418 10416 10414 10413 10412 10413 10416 10419 10422 10426 10430 10434 10437
10636 10637 10638 10639 10639 10640 10641 10641 10641 10641 10641 10641 10641 10640 10639 10639 10638 10637 10635 10634 10633 10631 10630 10628 10626 10624 10622 10619 10616 10614 10611 10608 10606 10603 10601 10598 10594 10590 10585 10581 10577 10572 10568 10563 10558 10554 10549 10544 10539 10534 10529 10523 10518 10513 10507 10501 10495 10490 10485 10479 10473 10467 10460 10453 10447 10441 10435 10429 10424 10420 10416 10413 10412 10411 10409 10407 10406 10406 10408 10411 10414 10417 10421 10426 10429
10631 10632 10633 10634 10634 10635 10635 10635 10635 10635 10635 10635 10635 10634 10634 10633 10632 10631 10630 10629 10627 10626 10624 10622 10621 10618 10616 10613 10611 10608 10605 10602 10600 10597 10594 10591 10587 10583 10578 10574 10570 10565 10561 10556 10552 10547 10542 10538 10533 10528 10523 10517 10512 10507 10501 10495 10490 10484 10479 10473 10468 10462 10455 10448 10442 10437 10431 10425 10420 10415 10411 10408 10406 10404 10403 10402 10400 10400 10401 10403 10406 10409 10413 10418 10422
10626 10628 10628 10629 10629 10630 10630 10629 10630 10630 10629 10629 10629 10629 10629 10628 10627 10625 10624 10623 10622 10620 10619 10617 10615 10613 10610 10608 10605 10602 10599 10597 10594 10591 10588 10584 10580 10576 10572 10568 10564 10559 10555 10550 10545 10541 10536 10531 10527 10522 10517 10512 10506 10501 10496 10490 10484 10479 10473 10468 10463 10457 10451 10444 10438 10432 10427 10421 10416 10411 10407 10404 10401 10399 10398 10397 10395 10394 10395 10397 10399 10401 10405 10409 10414